Flag for U.S.A. Weather past 2 weeks in Hartford, Connecticut, U.S.A.

Now
60 °F

Overcast.


Feels Like: 60 °F
Forecast: 60 / 71 °F
Wind: 6 mph from North

Location: Hartford-Brainard Airport

Current Time: Sep 30, 2014 at 7:03:50 AM

Latest Report: Sep 30, 2014 at 5:53 AM


Visibility: 10 mi

Pressure: 29.97 "Hg

Humidity: 86%

Dew point: 56 °F

Location of HartfordLocation

Historic Weather in Hartford — Graph

°F

Hartford temperature yesterday

Maximum temperature yesterday: 74 °F (at 2:53 PM)
Minimum temperature yesterday: 61 °F (at 1:53 AM)
Average temperature yesterday: 66 °F

Past Weeks' High & Low Weather Summary

 TemperatureHumidityPressure
High84 °F (Sep 28, 2:53 PM)100% (Sep 17, 3:53 AM)30.59 "Hg (Sep 17, 3:53 AM)
Low45 °F (Sep 23, 6:53 AM)33% (Sep 17, 3:53 PM)29.58 "Hg (Sep 21, 10:53 PM)
Average61 °F74%30.13 "Hg
* Reported Sep 15 5:53 AM — Sep 30 5:53 AM, Hartford, Weather by CustomWeather, © 2014

Note: Actual official high and low records may vary slightly from our data, if they occured in-between our weather recording intervals... More about our weather records

Advertising

Hartford weather history for previous 24 hours

 ConditionsComfort  
Time TempWeatherWind HumidityBarometerVisibility
5:53 AM
Sep 30
60 °FOvercast.6 mph86%29.97 "Hg10 mi
4:53 AM60 °FOvercast.7 mph86%29.98 "Hg10 mi
3:53 AM61 °FOvercast.7 mph83%29.97 "Hg10 mi
2:53 AM61 °FOvercast.8 mph87%29.96 "Hg10 mi
1:53 AM63 °FLow clouds.8 mph87%29.97 "Hg8 mi
12:53 AM64 °FOvercast.7 mph87%29.96 "Hg8 mi
11:53 PM
Sep 29
65 °FMostly cloudy.6 mph85%29.97 "Hg10 mi
10:53 PM67 °FOvercast.8 mph79%29.96 "Hg10 mi
9:53 PM68 °FPassing clouds.7 mph87%29.94 "Hg10 mi
8:53 PM68 °FClear.10 mph84%29.94 "Hg10 mi
7:53 PM67 °FClear.5 mph87%29.91 "Hg10 mi
6:53 PM67 °FSunny.N/A90%29.92 "Hg10 mi
5:53 PM69 °FSunny.No wind84%29.91 "Hg10 mi
4:53 PM72 °FSunny.9 mph73%29.91 "Hg10 mi
3:53 PM71 °FSunny.N/A73%29.92 "Hg10 mi
2:53 PM74 °FSunny.5 mph56%29.93 "Hg10 mi
1:53 PM73 °FSunny.8 mph62%29.93 "Hg10 mi
12:53 PM71 °FSunny.8 mph66%29.95 "Hg10 mi
11:53 AM70 °FSunny.6 mph71%29.97 "Hg10 mi
10:53 AM67 °FSunny.7 mph81%29.97 "Hg10 mi
9:53 AM66 °FSunny.5 mph84%29.98 "Hg9 mi
8:53 AM63 °FSunny.5 mph90%29.98 "Hg7 mi
7:53 AM62 °FFog.7 mph93%29.98 "Hg5 mi
Weather by CustomWeather, © 2014

See weather overviewHow to use our weather pages